Weather reports worldwide

Advertisment
Cap Bear, France (7749): temperature & dewpoint: 08.07.2020 11:00:00 - 14.07.2020 11:00:00 (CEST)Cap Bear, France (7749): wind speed & gusts: 08.07.2020 11:00:00 - 14.07.2020 11:00:00 (CEST)Cap Bear, France (7749): wind direction: 08.07.2020 11:00:00 - 14.07.2020 11:00:00 (CEST)Cap Bear, France (7749): reduced air pressure: 08.07.2020 11:00:00 - 14.07.2020 11:00:00 (CEST)Cap Bear, France (7749): visibility: 08.07.2020 11:00:00 - 14.07.2020 11:00:00 (CEST)Cap Bear, France (7749): precipitation: 08.07.2020 11:00:00 - 14.07.2020 11:00:00 (CEST)
Date & Time tt [°C] td [°C] ff [km/h] ff [kn] fx [km/h] fx [kn] dd ppp [hPa] vv [km] rr [mm]
14.07.2020 11:00:00 25,6 10,2 43 23 61 33 NW 1016,2 25 0,0
14.07.2020 10:00:00 24,8 10,6 35 19 65 35 NW 1016,6 - 0,0
14.07.2020 09:00:00 23,9 10,6 39 21 71 38 NW 1016,6 - 0,0
14.07.2020 08:00:00 23,3 10,0 40 21 67 36 NW 1016,4 25 0,0
14.07.2020 07:00:00 22,7 10,2 43 23 65 35 WNW 1016,5 - 0,0
14.07.2020 06:00:00 22,9 10,7 36 20 73 39 NW 1016,6 - 0,0
14.07.2020 05:00:00 23,3 11,4 40 22 69 37 NW 1016,6 - 0,0
14.07.2020 04:00:00 23,6 11,9 55 30 69 37 NW 1016,1 - 0,0
14.07.2020 03:00:00 24,5 12,1 42 23 69 37 NW 1016,5 - 0,0
14.07.2020 02:00:00 25,0 10,8 41 22 68 37 NW 1016,5 - 0,0
14.07.2020 01:00:00 25,5 9,3 36 19 72 39 NW 1016,7 - 0,0
14.07.2020 00:00:00 25,4 10,0 51 27 77 41 NW 1016,0 - 0,0
13.07.2020 23:00:00 25,9 10,5 51 28 70 38 NW 1016,1 - 0,0
13.07.2020 22:00:00 26,5 11,4 37 20 58 32 NW 1016,6 - 0,0
13.07.2020 21:00:00 27,5 11,1 36 20 69 38 NW 1016,2 - 0,0
13.07.2020 20:00:00 28,3 11,4 41 22 61 33 NW 1016,0 - 0,0
13.07.2020 19:00:00 29,2 11,3 37 20 53 29 NW 1016,2 - 0,0
13.07.2020 18:00:00 27,2 14,6 35 19 41 22 NNW 1016,6 - 0,0
13.07.2020 17:00:00 28,2 16,8 15 8 30 16 N 1017,1 - 0,0
13.07.2020 16:00:00 27,6 17,5 13 7 27 15 NNE 1017,3 - 0,0
13.07.2020 15:00:00 27,5 16,8 17 9 29 16 ENE 1017,7 - 0,0
13.07.2020 14:00:00 28,7 16,6 20 11 36 20 NNW 1018,4 - 0,0
13.07.2020 13:00:00 27,8 14,4 28 15 41 22 NW 1018,8 - 0,0
13.07.2020 12:00:00 25,6 16,7 31 17 40 22 NW 1019,2 - 0,0
13.07.2020 11:00:00 26,6 13,7 35 19 49 26 NW 1019,3 30 0,0
13.07.2020 10:00:00 24,7 15,3 42 23 61 33 NW 1019,1 - 0,0
13.07.2020 09:00:00 24,9 14,7 36 20 58 32 NW 1018,5 - 0,0
13.07.2020 08:00:00 24,4 14,8 32 17 48 26 NW 1018,7 - 0,0
13.07.2020 07:00:00 24,4 15,3 29 16 48 26 NW 1018,2 - 0,0
13.07.2020 06:00:00 24,3 15,5 28 15 46 25 NW 1018,0 - 0,0
13.07.2020 05:00:00 24,3 15,8 23 13 36 19 NW 1017,8 30 0,0
13.07.2020 04:00:00 24,6 15,2 27 15 36 19 WNW 1018,2 - 0,0
13.07.2020 03:00:00 24,6 15,2 23 12 37 20 WNW 1018,5 - 0,0
13.07.2020 02:00:00 24,7 15,1 26 14 32 18 NW 1018,4 - 0,0
13.07.2020 01:00:00 23,7 16,5 12 6 23 13 NW 1018,6 - 0,0
13.07.2020 00:00:00 22,8 17,3 20 11 24 13 NW 1018,5 - 0,0
12.07.2020 23:00:00 23,5 16,8 18 10 23 12 NW 1018,1 - 0,0
12.07.2020 22:00:00 25,7 15,4 4 2 21 11 SSW 1017,8 - 0,0
12.07.2020 21:00:00 25,7 15,4 13 7 38 21 SSW 1017,7 - 0,0
12.07.2020 20:00:00 26,5 13,6 18 10 29 16 W 1017,5 - 0,0
12.07.2020 19:00:00 24,9 16,1 6 3 52 28 NNW 1016,6 - 0,0
12.07.2020 18:00:00 24,7 15,9 26 14 41 22 NW 1018,4 - 0,2
12.07.2020 17:00:00 24,2 15,1 8 4 22 12 WNW 1019,5 40 0,0
12.07.2020 16:00:00 23,0 13,2 14 8 19 11 S 1019,5 - 0,0
12.07.2020 15:00:00 24,1 13,6 11 6 17 9 SE 1020,0 - 0,0
12.07.2020 14:00:00 24,9 17,1 8 4 15 8 ESE 1019,7 30 0,0
12.07.2020 13:00:00 25,3 18,0 8 5 16 8 SE 1019,6 - 0,0
12.07.2020 12:00:00 25,6 17,5 7 4 12 6 NNE 1019,2 - 0,0
12.07.2020 11:00:00 25,8 17,4 11 6 14 8 N 1019,1 30 0,0
12.07.2020 10:00:00 24,3 16,8 11 6 23 12 NNW 1019,1 - 0,0
12.07.2020 09:00:00 23,0 17,0 19 10 22 12 NNW 1018,9 - 0,0
12.07.2020 08:00:00 22,3 17,0 13 7 26 14 NNW 1018,7 - 0,0
12.07.2020 07:00:00 22,9 14,2 20 11 32 17 NW 1017,9 - 0,0
12.07.2020 06:00:00 23,3 12,9 23 12 38 20 NW 1017,6 - 0,0
12.07.2020 05:00:00 23,1 13,3 33 18 42 23 NW 1017,2 30 0,0
12.07.2020 04:00:00 24,3 12,3 24 13 39 21 NW 1017,5 - 0,0
12.07.2020 03:00:00 24,6 12,5 26 14 44 24 NW 1017,7 - 0,0
12.07.2020 02:00:00 25,1 12,7 30 16 52 28 NW 1017,6 - 0,0
12.07.2020 01:00:00 25,2 12,8 32 17 51 28 NW 1018,0 - 0,0
12.07.2020 00:00:00 24,9 13,8 34 18 54 29 WNW 1017,9 - 0,0
11.07.2020 23:00:00 25,0 14,5 37 20 59 32 WNW 1018,0 - 0,0
11.07.2020 22:00:00 25,3 15,0 37 20 55 30 WNW 1017,6 - 0,0
11.07.2020 21:00:00 26,1 15,2 29 16 58 31 NW 1017,1 - 0,0
11.07.2020 20:00:00 27,3 14,7 34 19 57 31 NW 1016,6 - 0,0
11.07.2020 19:00:00 27,7 14,7 37 20 59 32 NW 1016,5 - 0,0
11.07.2020 18:00:00 25,7 16,8 40 22 54 29 NNW 1016,8 - 0,0
11.07.2020 17:00:00 27,1 16,1 40 21 50 27 NNW 1017,0 30 0,0
11.07.2020 16:00:00 26,8 16,7 49 26 63 34 NNW 1017,1 - 0,0
11.07.2020 15:00:00 26,7 16,6 50 27 58 31 NNW 1017,4 - 0,0
11.07.2020 14:00:00 25,8 16,6 49 26 62 33 NNW 1017,9 - 0,0
11.07.2020 13:00:00 25,8 16,9 50 27 60 32 NNW 1018,3 - 0,0
11.07.2020 12:00:00 24,9 17,1 51 28 63 34 NNW 1018,2 - 0,0
11.07.2020 11:00:00 24,3 17,1 48 26 66 35 NNW 1018,2 30 0,0
11.07.2020 10:00:00 23,6 16,4 52 28 65 35 NW 1018,0 - 0,0
11.07.2020 09:00:00 22,8 16,6 47 25 61 33 NW 1018,2 - 0,0
11.07.2020 08:00:00 22,2 16,2 34 18 57 31 NW 1017,9 30 0,0
11.07.2020 07:00:00 21,6 16,3 36 19 61 33 NW 1017,5 - 0,0
11.07.2020 06:00:00 21,6 16,3 42 23 63 34 NW 1017,0 - 0,0
11.07.2020 05:00:00 21,7 16,4 40 22 67 36 NW 1016,9 30 0,0
11.07.2020 04:00:00 21,9 16,4 42 23 66 36 WNW 1016,9 - 0,0
11.07.2020 03:00:00 22,4 16,4 41 22 66 36 WNW 1017,1 - 0,0
11.07.2020 02:00:00 22,9 16,7 37 20 66 36 NW 1017,2 - 0,0
11.07.2020 01:00:00 23,3 16,6 42 23 62 34 NW 1016,8 - 0,0
11.07.2020 00:00:00 23,7 16,5 41 22 63 34 NW 1016,4 - 0,0
10.07.2020 23:00:00 24,7 16,7 38 21 56 30 NW 1016,1 - 0,0
10.07.2020 22:00:00 25,1 16,8 39 21 59 32 WNW 1015,1 - 0,0
10.07.2020 21:00:00 25,8 16,6 36 20 61 33 NW 1014,7 - 0,0
10.07.2020 20:00:00 26,2 17,3 36 19 63 34 NW 1014,4 20 0,0
10.07.2020 19:00:00 28,3 19,2 19 10 39 21 NW 1014,4 - 0,0
10.07.2020 18:00:00 26,4 19,5 22 12 42 23 S 1014,6 - 0,0
10.07.2020 17:00:00 27,4 19,2 30 16 72 39 SSW 1014,6 15 0,0
10.07.2020 16:00:00 24,1 20,6 20 11 43 23 S 1015,3 - 0,0
10.07.2020 15:00:00 23,9 20,2 34 18 36 20 SSE 1015,4 - 0,0
10.07.2020 14:00:00 24,5 19,8 10 6 15 8 SSE 1015,8 - 0,0
10.07.2020 13:00:00 25,1 18,8 10 5 19 10 ENE 1015,7 - 0,0
10.07.2020 12:00:00 27,2 18,5 17 9 29 16 N 1015,4 - 0,0
10.07.2020 11:00:00 26,6 18,2 26 14 30 16 NNW 1015,7 18 0,0
10.07.2020 10:00:00 25,5 17,9 23 12 31 17 NW 1016,2 - 0,0
10.07.2020 09:00:00 24,2 18,8 23 13 36 19 NNW 1016,0 - 0,0
10.07.2020 08:00:00 25,6 17,3 23 12 50 27 NW 1015,4 25 0,0
10.07.2020 07:00:00 25,4 17,1 23 13 41 22 NW 1015,3 - 0,0
10.07.2020 06:00:00 25,8 16,1 27 15 35 19 NW 1015,1 - 0,0
10.07.2020 05:00:00 24,6 15,8 5 3 15 8 NW 1015,1 25 0,0
10.07.2020 04:00:00 24,4 16,6 9 5 22 12 W 1015,2 - 0,0
10.07.2020 03:00:00 23,8 18,0 5 3 30 16 NW 1015,4 - 0,0
10.07.2020 02:00:00 25,2 15,8 8 4 18 10 S 1015,2 - 0,0
10.07.2020 01:00:00 24,3 18,2 13 7 16 9 SSE 1015,1 - 0,0
10.07.2020 00:00:00 25,2 18,4 4 2 16 9 SSW 1015,5 - 0,0
09.07.2020 23:00:00 24,9 18,6 16 9 35 19 NW 1016,0 - 0,0
09.07.2020 22:00:00 24,4 20,5 29 16 36 19 NW 1015,6 - 0,0
09.07.2020 21:00:00 24,0 20,1 10 5 16 8 SE 1014,8 - 0,0
09.07.2020 20:00:00 24,6 20,1 4 2 24 13 W 1015,7 15 0,0
09.07.2020 19:00:00 24,0 20,5 18 10 23 13 SSE 1015,7 - 0,0
09.07.2020 18:00:00 24,4 18,8 18 10 23 12 SSE 1015,8 - 0,0
09.07.2020 17:00:00 23,5 20,6 20 11 25 14 SSE 1016,3 15 0,0
09.07.2020 16:00:00 23,8 21,1 18 10 24 13 SE 1016,5 - 0,0
09.07.2020 15:00:00 24,5 21,0 20 11 22 12 SE 1016,8 - 0,0
09.07.2020 14:00:00 24,5 20,4 14 7 18 10 SE 1017,1 - 0,0
09.07.2020 13:00:00 24,0 19,1 7 4 13 7 E 1017,6 - 0,0
09.07.2020 12:00:00 26,3 18,4 7 4 13 7 NE 1017,4 - 0,0
09.07.2020 11:00:00 24,6 16,8 6 3 14 8 NE 1017,5 - 0,0
09.07.2020 10:00:00 23,8 14,2 9 5 14 8 N 1017,5 - 0,0
09.07.2020 09:00:00 24,3 15,2 13 7 19 11 NNW 1017,2 - 0,0
09.07.2020 08:00:00 23,5 13,9 15 8 33 18 NW 1017,0 25 0,0
09.07.2020 07:00:00 21,8 15,4 25 13 35 19 NW 1016,6 - 0,0
09.07.2020 06:00:00 21,6 15,4 31 17 38 20 NW 1015,5 - 0,0
09.07.2020 05:00:00 21,4 15,5 34 18 38 21 NW 1015,4 - 0,0
09.07.2020 04:00:00 21,0 15,5 10 5 17 9 NNW 1015,8 - 0,0
09.07.2020 03:00:00 22,9 13,1 14 7 17 9 NNW 1015,6 - 0,0
09.07.2020 02:00:00 23,9 12,8 8 4 11 6 N 1015,9 - 0,0
09.07.2020 01:00:00 24,8 12,7 6 4 24 13 NW 1016,3 - 0,0
09.07.2020 00:00:00 25,8 11,9 12 7 26 14 SW 1016,1 - 0,0
08.07.2020 23:00:00 26,4 11,3 6 4 39 21 WSW 1016,3 - 0,0
08.07.2020 22:00:00 25,7 11,1 29 15 39 21 SW 1016,0 - 0,0
08.07.2020 21:00:00 26,1 11,1 26 14 31 17 SW 1015,6 - 0,0
08.07.2020 20:00:00 23,9 16,2 24 13 35 19 SSE 1015,4 25 0,0
08.07.2020 19:00:00 23,6 15,6 35 19 39 21 SSE 1015,4 - 0,0
08.07.2020 18:00:00 23,6 15,4 34 18 39 21 SSE 1016,1 - 0,0
08.07.2020 17:00:00 24,4 16,4 31 17 35 19 SSE 1016,7 - 0,0
08.07.2020 16:00:00 25,0 17,5 29 15 30 16 SSE 1017,2 - 0,0
08.07.2020 15:00:00 25,3 16,7 17 9 20 11 SSE 1017,4 - 0,0
08.07.2020 14:00:00 24,4 18,1 14 7 18 10 SSE 1017,9 25 0,0
08.07.2020 13:00:00 23,8 18,0 10 6 21 12 SSE 1018,0 - 0,0
08.07.2020 12:00:00 25,2 11,7 11 6 16 9 ENE 1017,7 - 0,0
08.07.2020 11:00:00 26,3 13,1 13 7 21 12 N 1017,3 - 0,0

tt = temperature
td = dewpoint
ff = wind speed
fx = gusts
dd = wind direction
ppp = reduced air pressure
vv = visibility
rr = precipitation

Next stations